DW5948 Weather Reports


time (UTC)temp
C
wind
direction
speed
KPH
gust
KPH
rain 1hr
cm
rain 24hr
cm
rain mn
cm
humidity
%
barometer
mb
20260510043037 22 148 0.0 0.0 0.00 0.00 0.00 89 1011.4
20260510041537 23 149 0.0 3.2 0.00 0.00 0.00 89 1011.3
20260510040037 22 141 0.0 6.4 0.00 0.00 0.00 90 1011.3
20260510034537 22 141 0.0 4.8 0.00 0.00 0.00 94 1011.4
20260510033034 21 149 0.0 1.6 0.00 0.00 0.00 95 1011.6
20260510031536 21 46 0.0 1.6 0.00 0.00 0.00 95 1011.5
20260510030031 21 46 0.0 1.6 0.00 0.00 0.00 95 1011.2
20260510024529 21 281 0.0 0.0 0.00 0.00 0.00 95 1010.6
20260510023028 21 281 0.0 1.6 0.00 0.00 0.00 95 1010.4
20260510021535 21 281 0.0 0.0 0.00 0.00 0.00 95 1009.9
20260510020027 21 281 0.0 4.8 0.00 0.00 0.00 95 1009.3
20260510014526 21 170 0.0 0.0 0.00 0.00 0.00 94 1008.8
20260510013024 21 174 0.0 0.0 0.00 0.00 0.00 93 1008.6
20260510011524 21 174 0.0 0.0 0.00 0.00 0.00 93 1008.5
20260510010022 21 126 0.0 0.0 0.00 0.00 0.00 93 1008.6
20260510004521 21 195 0.0 0.0 0.00 0.00 0.00 91 1008.1
20260510003023 21 127 0.0 9.7 0.00 0.00 0.00 88 1008.2
20260510001518 20 143 1.6 3.2 0.00 0.00 0.00 90 1008.8
20260510000020 20 317 0.0 4.8 0.00 0.00 0.00 88 1009.4
20260509234513 22 262 3.2 9.7 0.00 0.00 0.00 78 1009.2
20260509233012 25 183 3.2 12.9 0.00 0.00 0.00 67 1008.1
20260509231510 29 159 1.6 6.4 0.00 0.00 0.00 70 1008.0
20260509230010 30 124 0.0 1.6 0.00 0.00 0.00 69 1007.7
20260509224509 30 127 0.0 1.6 0.00 0.00 0.00 66 1007.4
20260509223008 30 98 0.0 1.6 0.00 0.00 0.00 64 1007.5
20260509221510 31 89 0.0 3.2 0.00 0.00 0.00 66 1007.3
20260509220009 31 141 0.0 4.8 0.00 0.00 0.00 66 1007.4
20260509214507 33 44 0.0 4.8 0.00 0.00 0.00 62 1007.4
20260509213007 33 131 0.0 3.2 0.00 0.00 0.00 66 1007.4
20260509211511 32 38 1.6 9.7 0.00 0.00 0.00 62 1007.4
20260509210007 32 128 0.0 3.2 0.00 0.00 0.00 67 1007.7
20260509204601 32 7 0.0 4.8 0.00 0.00 0.00 62 1008.0
20260509203056 32 106 0.0 6.4 0.00 0.00 0.00 63 1008.0
20260509201600 32 137 0.0 8.0 0.00 0.00 0.00 64 1008.2
20260509194550 32 331 1.6 4.8 0.00 0.00 0.00 66 1008.6
20260509193047 31 307 0.0 4.8 0.00 0.00 0.00 66 1008.6
20260509191545 31 300 0.0 6.4 0.00 0.00 0.00 68 1008.6
20260509190051 30 317 0.0 8.0 0.00 0.00 0.00 71 1008.7
20260509184541 30 267 0.0 3.2 0.00 0.00 0.00 73 1008.9
20260509183040 30 133 1.6 6.4 0.00 0.00 0.00 72 1009.2
20260509181540 30 175 0.0 6.4 0.00 0.00 0.00 73 1009.3
20260509180039 30 247 0.0 8.0 0.00 0.00 0.00 74 1009.8
20260509174536 30 110 1.6 4.8 0.00 0.00 0.00 76 1010.0
20260509173033 29 162 3.2 9.7 0.00 0.00 0.00 75 1010.1
20260509171536 28 135 0.0 4.8 0.00 0.00 0.00 83 1010.3
20260509170030 27 184 0.0 4.8 0.00 0.00 0.00 86 1010.5
20260509164523 26 134 0.0 3.2 0.00 0.00 0.00 93 1010.5
20260509163024 25 101 0.0 3.2 0.00 0.00 0.00 96 1010.6
20260509161515 25 103 0.0 1.6 0.00 0.00 0.00 97 1010.4
20260509160014 25 316 0.0 4.8 0.00 0.00 0.00 98 1010.4
20260509154517 24 155 0.0 0.0 0.00 0.00 0.00 98 1010.4
20260509153010 24 159 0.0 0.0 0.00 0.00 0.00 98 1010.3
20260509151509 23 159 0.0 1.6 0.00 0.00 0.00 98 1010.5
20260509150016 23 230 0.0 3.2 0.00 0.00 0.00 98 1010.2
20260509144506 23 154 0.0 0.0 0.00 0.00 0.00 98 1010.1
20260509143005 23 154 0.0 0.0 0.00 0.00 0.00 98 1009.8
20260509141508 23 160 0.0 1.6 0.00 0.00 0.00 98 1009.5
20260509140003 23 125 0.0 1.6 0.00 0.00 0.00 98 1009.2
20260509134508 23 115 0.0 1.6 0.00 0.00 0.00 98 1009.8
20260509133002 23 151 1.6 3.2 0.00 0.00 0.00 98 1010.3
20260509131502 23 167 0.0 4.8 0.00 0.00 0.00 98 1010.4
20260509130001 23 134 0.0 1.6 0.00 0.00 0.00 99 1010.9
20260509124601 23 134 0.0 1.6 0.00 0.00 0.00 99 1010.1
20260509123058 23 138 0.0 1.6 0.00 0.00 0.00 98 1010.5
20260509121557 23 140 0.0 0.0 0.00 0.00 0.00 98 1010.3
20260509120056 22 140 0.0 0.0 0.00 0.00 0.00 98 1010.3
20260509114556 22 140 0.0 1.6 0.00 0.00 0.00 98 1010.1
20260509113057 22 140 0.0 0.0 0.00 0.00 0.00 98 1010.0
20260509111552 22 140 0.0 0.0 0.00 0.00 0.00 98 1009.7
20260509110052 22 140 0.0 0.0 0.00 0.00 0.00 98 1009.8
20260509104552 22 140 0.0 0.0 0.00 0.00 0.00 98 1009.4
20260509103053 22 140 0.0 0.0 0.00 0.00 0.00 98 1009.5
20260509101554 22 140 0.0 0.0 0.00 0.00 0.00 98 1009.7
20260509100049 22 140 0.0 0.0 0.00 0.00 0.00 98 1009.6
20260509094549 23 139 0.0 0.0 0.00 0.00 0.00 98 1009.1
20260509093047 23 140 0.0 0.0 0.00 0.00 0.00 98 1009.0
20260509091550 23 140 0.0 0.0 0.00 0.00 0.00 98 1009.3
20260509090046 23 140 0.0 0.0 0.00 0.00 0.00 98 1009.6
20260509084549 23 140 0.0 0.0 0.00 0.00 0.00 98 1009.5
20260509083048 23 140 0.0 0.0 0.00 0.00 0.00 98 1009.3
20260509081549 23 140 0.0 0.0 0.00 0.00 0.00 97 1009.3
20260509080044 23 140 0.0 1.6 0.00 0.00 0.00 97 1009.2
20260509074553 23 165 0.0 4.8 0.00 0.00 0.00 97 1009.2
20260509073041 23 127 1.6 6.4 0.00 0.00 0.00 95 1009.1
20260509071537 23 144 0.0 4.8 0.00 0.00 0.00 95 1009.6
20260509070036 23 143 0.0 1.6 0.00 0.00 0.00 95 1009.7
20260509064544 23 160 0.0 0.0 0.00 0.00 0.00 95 1010.0
20260509063037 23 160 0.0 0.0 0.00 0.00 0.00 95 1009.8
20260509061535 23 160 0.0 1.6 0.00 0.00 0.00 95 1009.9
20260509060032 23 145 0.0 1.6 0.00 0.00 0.00 95 1009.9
20260509054535 23 178 0.0 3.2 0.00 0.00 0.00 94 1010.1
20260509053031 23 128 0.0 1.6 0.00 0.00 0.00 94 1010.0
20260509051534 23 91 0.0 1.6 0.00 0.00 0.00 94 1010.1
20260509050028 23 155 0.0 3.2 0.00 0.00 0.00 94 1010.1
20260509044528 23 119 0.0 1.6 0.00 0.00 0.00 94 1010.0